Flag for Sierra Leone Weather past 2 weeks in Kenema, Sierra Leone

Now
75 °F

Rain. Mostly cloudy.


Feels Like: 74 °F
Forecast: N/A
Wind: No wind

Location: Roberts Field

Current Time: Jul 26, 2014 at 8:01:34 PM

Latest Report: Jul 26, 2014 at 7:30 PM


Visibility: 2 mi

Pressure: 29.92 "Hg

Humidity: 94%

Dew point: 73 °F

Location of KenemaLocation

Historic Weather in Kenema — Graph

°F

Kenema temperature yesterday

Maximum temperature yesterday: 79 °F (at 4:00 PM)
Minimum temperature yesterday: 75 °F (at 11:00 AM)
Average temperature yesterday: 77 °F

Past Weeks' High & Low Weather Summary

 TemperatureHumidityPressure
High84 °F (Jul 12, 1:30 PM)94% (Jul 11, 11:30 PM)30.07 "Hg (Jul 11, 11:30 PM)
Low73 °F (Jul 19, 5:00 AM)70% (Jul 18, 2:30 PM)29.89 "Hg (Jul 25, 4:00 PM)
Average78 °F89%29.98 "Hg
* Reported Jul 11 7:00 PM — Jul 26 7:00 PM, Kenema, Weather by CustomWeather, © 2014

Note: Actual official high and low records may vary slightly from our data, if they occured in-between our weather recording intervals... More about our weather records

Advertising

Kenema weather history for previous 24 hours

 ConditionsComfort  
Time TempWeatherWind HumidityBarometerVisibility
7:00 PM
Jul 26
75 °FRain. Mostly cloudy.No wind94%29.92 "Hg1 mi
6:30 PM75 °FRain. Mostly cloudy.5 mph94%29.89 "Hg2 mi
6:00 PM77 °FRain. Mostly cloudy.No wind94%29.89 "Hg2 mi
5:30 PM77 °FHeavy rain. Mostly cloudy.3 mph94%29.89 "Hg1 mi
5:00 PM77 °FHeavy rain. Mostly cloudy.5 mph94%29.89 "Hg1 mi
4:30 PM77 °FRain. Broken clouds.5 mph94%29.89 "Hg4 mi
4:00 PM79 °FLight rain. Partly sunny.7 mph89%29.89 "Hg5 mi
3:30 PM79 °FPartly sunny.3 mph94%29.89 "Hg5 mi
3:00 PM79 °FLight rain. Broken clouds.8 mph94%29.92 "Hg4 mi
2:30 PM79 °FDrizzle. Partly sunny.6 mph89%29.92 "Hg6 mi
2:00 PM79 °FLight rain. Partly sunny.9 mph89%29.92 "Hg5 mi
1:30 PM79 °FLight rain. Partly sunny.8 mph94%29.95 "Hg5 mi
1:00 PM81 °FPartly sunny.No wind84%29.95 "HgN/A
12:30 PM81 °FPartly sunny.6 mph84%29.95 "HgN/A
11:30 AM79 °FPartly sunny.5 mph94%29.98 "HgN/A
11:00 AM79 °FPartly sunny.5 mph89%29.98 "HgN/A
10:30 AM77 °FDrizzle. Partly sunny.No wind94%29.98 "HgN/A
10:00 AM77 °FDrizzle. Partly sunny.No wind94%29.98 "Hg6 mi
9:30 AM75 °FRain. Broken clouds.No wind94%30.01 "Hg4 mi
9:00 AM75 °FRain. Broken clouds.No wind94%29.98 "Hg3 mi
8:30 AM75 °FRain. Broken clouds.No wind94%29.98 "Hg2 mi
8:00 AM75 °FLight rain. Partly sunny.No wind94%29.98 "Hg4 mi
7:30 AM75 °FPassing clouds.No wind94%29.98 "Hg4 mi
7:00 AM75 °FLight rain. Passing clouds.No wind94%29.95 "Hg4 mi
6:30 AM75 °FLight rain. Passing clouds.No wind94%29.95 "Hg4 mi
6:00 AM75 °FLight rain. Partly cloudy.No wind94%29.95 "Hg4 mi
2:00 AM75 °FRain. Partly cloudy.No wind94%29.95 "Hg4 mi
Weather by CustomWeather, © 2014

See weather overviewHow to use our weather pages